Hourly Data Report for August 01, 2021

CAMPBELL RIVER A
BRITISH COLUMBIA
Current Station Operator: NAVCAN

49°57'07.000" N
125°16'23.000" W
108.80 m
1021270
YBL

Download Data

Hourly Data (August 2021)
Hourly Data Report for August 1, 2021
TIME
LST
Temp Definition
°C
Dew Point Definition
°C
Rel Hum Definition
%
Precip. Amount Definition
mm

Wind Dir Definition
10's deg

Wind Spd Definition
km/h
Visibility Definition
km
Stn Press Definition
kPa
Hmdx Definition


Wind Chill Definition


Weather Definition


00:00 20.9 12.3 58 LegendMM 30 17 LegendMM 100.41     LegendNANA
01:00 19.9 12.0 60 LegendMM 29 15 LegendMM 100.41     LegendNANA
02:00 19.1 11.8 62 LegendMM 30 19 LegendMM 100.38     LegendNANA
03:00 17.8 11.7 68 LegendMM 30 17 LegendMM 100.38     LegendNANA
04:00 16.1 11.9 76 LegendMM 32 16 LegendMM 100.42     LegendNANA
05:00 15.9 12.0 77 LegendMM 30 15 LegendMM 100.42     LegendNANA
06:00 16.3 11.8 74 LegendMM 30 12 LegendMM 100.49     LegendNANA
07:00 18.5 12.2 67 LegendMM 31 14 LegendMM 100.53     LegendNANA
08:00 20.6 12.8 61 LegendMM 30 11 LegendMM 100.52     LegendNANA
09:00 21.9 13.3 58 LegendMM 31 7 LegendMM 100.53 25   LegendNANA
10:00 23.2 13.5 54 LegendMM 10 13 LegendMM 100.52 26   LegendNANA
11:00 23.8 13.6 52 LegendMM 9 12 LegendMM 100.55 27   LegendNANA
12:00 26.1 13.9 46 LegendMM 7 14 LegendMM 100.52 29   LegendNANA
13:00 26.3 13.6 45 LegendMM 8 14 LegendMM 100.50 29   LegendNANA
14:00 27.5 13.7 42 LegendMM 4 12 LegendMM 100.47 31   LegendNANA
15:00 29.2 13.6 38 LegendMM 10 12 LegendMM 100.44 32   LegendNANA
16:00 28.6 13.6 39 LegendMM 7 9 LegendMM 100.41 32   LegendNANA
17:00 28.4 13.9 41 LegendMM 7 10 LegendMM 100.39 32   LegendNANA
18:00 26.5 13.4 44 LegendMM 8 9 LegendMM 100.39 30   LegendNANA
19:00 25.7 15.1 52 LegendMM 20 2 LegendMM 100.42 30   LegendNANA
20:00 23.6 14.2 55 LegendMM 36 10 LegendMM 100.49 27   LegendNANA
21:00 20.1 14.0 68 LegendMM 30 7 LegendMM 100.57     LegendNANA
22:00 19.9 13.0 64 LegendMM 31 10 LegendMM 100.61     LegendNANA
23:00 18.5 12.7 69 LegendMM 29 12 LegendMM 100.66     LegendNANA

Notes on Data Quality.

Legend

  • E = Estimated
  • M = Missing
  • NA = Not Available*
  • [empty] = Indicates an unobserved value
Date modified: